Terre Haute, IN

12:05 PM EDT on October 22, 2017 (GMT -0400)
Terre Haute International-Hulman

Weather History for KHUF - October, 2012

Change the Weather History Date:

Thursday, October 25, 2012

  Actual Average Record
Temperature  
Mean Temperature 65 °F 51 °F  
Max Temperature 79 °F 62 °F 83 °F (1963)
Min Temperature 50 °F 40 °F 25 °F (2013)
Degree Days  
Heating Degree Days 0 14  
Month to date heating degree days 229 260  
Since 1 July heating degree days 318 338  
Cooling Degree Days 0 0  
Month to date cooling degree days 12 12  
Year to date cooling degree days 1592 990  
Growing Degree Days 16 (Base 50)    
Moisture  
Dew Point 55 °F    
Average Humidity 63    
Maximum Humidity 78    
Minimum Humidity 48    
Precipitation  
Precipitation T in 0.12 in 0.75 in (2002)
Month to date precipitation 2.57 2.93  
Year to date precipitation 24.30 37.63  
Sea Level Pressure  
Sea Level Pressure 29.93 in    
Wind  
Wind Speed 13 mph (South)    
Max Wind Speed 26 mph    
Max Gust Speed 36 mph    
Visibility 10 miles    
Events      
T = Trace of Precipitation, MM = Missing Value Source: NWS Daily Summary

Daily Weather History Graph

Daily Weather History Graph

Search for Another Location

Airport or City:

Trip Planner

Search our weather history database for the weather conditions in past years. The results will help you decide how hot, cold, wet, or windy it might be!

Date:

Astronomy

Oct. 25, 2012 Rise Set
Actual Time 8:10 AM EDT 6:55 PM EDT
Civil Twilight 7:42 AM EDT 7:23 PM EDT
Nautical Twilight 7:11 AM EDT 7:54 PM EDT
Astronomical Twilight 6:40 AM EDT 8:25 PM EDT
Moon 4:40 PM EDT (10/25) 4:07 AM EDT (10/25)
Length of Visible Light 11h 40m
Length of Day
10h 45m
Waxing Gibbous, 84% of the Moon is Illuminated
Oct 25
Waxing Gibbous
Oct 29
Full
Nov 6
Last Quarter
Nov 13
New
Nov 20
First Quarter

Hourly Weather History & Observations

Time (EDT) Temp. Dew Point Humidity Pressure Visibility Wind Dir Wind Speed Gust Speed Precip Events Conditions
12:53 AM 64.9 °F 54.0 °F 68% 29.96 in 10.0 mi SSE 8.1 mph - N/A   Clear
1:53 AM 64.0 °F 54.0 °F 70% 29.96 in 10.0 mi SSE 6.9 mph - N/A   Clear
2:53 AM 62.1 °F 53.1 °F 72% 29.95 in 10.0 mi SSE 5.8 mph - N/A   Clear
3:53 AM 63.0 °F 54.0 °F 72% 29.94 in 10.0 mi SSE 6.9 mph - N/A   Clear
4:53 AM 63.0 °F 54.0 °F 72% 29.94 in 10.0 mi South 6.9 mph - N/A   Clear
5:53 AM 62.1 °F 54.0 °F 75% 29.93 in 10.0 mi SSE 8.1 mph - N/A   Clear
6:53 AM 63.0 °F 55.0 °F 75% 29.94 in 10.0 mi South 9.2 mph - N/A   Clear
7:53 AM 64.0 °F 55.0 °F 73% 29.94 in 10.0 mi South 10.4 mph - N/A   Clear
8:53 AM 64.0 °F 55.0 °F 73% 29.97 in 10.0 mi South 10.4 mph - N/A   Clear
9:53 AM 66.9 °F 55.9 °F 68% 29.97 in 10.0 mi South 15.0 mph 19.6 mph N/A   Clear
10:53 AM 71.1 °F 57.0 °F 61% 29.96 in 10.0 mi South 17.3 mph 23.0 mph N/A   Scattered Clouds
11:53 AM 73.0 °F 57.9 °F 59% 29.95 in 10.0 mi South 13.8 mph 23.0 mph N/A   Scattered Clouds
12:53 PM 75.9 °F 57.9 °F 54% 29.92 in 10.0 mi South 19.6 mph 25.3 mph N/A   Partly Cloudy
1:53 PM 78.1 °F 59.0 °F 52% 29.89 in 10.0 mi South 15.0 mph 27.6 mph N/A   Clear
2:53 PM 78.1 °F 57.9 °F 50% 29.88 in 10.0 mi South 17.3 mph 28.8 mph N/A   Mostly Cloudy
3:53 PM 78.1 °F 59.0 °F 52% 29.86 in 10.0 mi South 19.6 mph 31.1 mph N/A   Clear
4:53 PM 78.1 °F 59.0 °F 52% 29.85 in 10.0 mi South 19.6 mph 27.6 mph N/A   Mostly Cloudy
5:53 PM 77.0 °F 59.0 °F 54% 29.85 in 10.0 mi South 19.6 mph 24.2 mph N/A   Clear
6:53 PM 75.0 °F 59.0 °F 57% 29.86 in 10.0 mi South 11.5 mph - N/A   Scattered Clouds
7:53 PM 73.9 °F 57.9 °F 57% 29.86 in 10.0 mi South 13.8 mph - N/A   Clear
9:53 PM 73.0 °F 57.9 °F 59% 29.88 in 10.0 mi South 15.0 mph - N/A   Overcast
10:07 PM 69.8 °F 57.2 °F 64% 29.93 in 10.0 mi NW 13.8 mph 23.0 mph N/A   Overcast
10:53 PM 55.9 °F 48.0 °F 75% 29.96 in 10.0 mi NW 17.3 mph 25.3 mph 0.00 in   Mostly Cloudy
11:16 PM 55.4 °F 46.4 °F 72% 29.99 in 10.0 mi NW 12.7 mph 27.6 mph N/A   Overcast
11:29 PM 55.4 °F 46.4 °F 72% 29.99 in 10.0 mi NW 13.8 mph 20.7 mph N/A   Overcast
11:53 PM 54.0 °F 46.0 °F 75% 30.00 in 10.0 mi NW 12.7 mph 25.3 mph N/A   Overcast